Location: Charleville
(26.4021°S, 146.2454°E)
Time: 04:32:39
(UTC+10:00)

Envisat - Pass Details

Date: 17 November 2025
Orbit: 761 x 762 km, 98.4° (Epoch: 05 December)

Event Time Altitude Azimuth Distance (km) Brightness Sun altitude
Exits shadow 03:18:39 13° 232° (SW) 2,077 5.1 -23.8°
Drops below altitude 10° 03:19:28 10° 225° (SW) 2,313 5.4 -23.7°
Sets 03:22:15 0° 210° (SSW) 3,247 6.3 -23.2°
